Airfield :
LOGIN :

Register | Disclaimer

   EN    FR    IT 

 










Legend :    VFR   Marginal VFR   IFR   Intensive IFR   Very Intensive IFR
Visi :
Ceiling :
>= 8 km
>= 3000ft
5 to 8 km
1000 to 3000 ft
1500m to 5 km
500 to 1000 ft
800 to 1500m
200 to 500 ft
< 800m
< 200 ft
Symbols :   Thunderstorms  Fog  Heavy snow  Heavy precipitations  Wind > 20 kt
SIGMETs :     Misc.  Thunderstorms  Icing  Turbulence  Mountain Waves  Volcanic Ashes






- Airport Elevation : 38 ft
- IATA code : TRE


EGPU - Tiree

CURRENT METAR :
  • 281920Z AUTO 26016KT 230V290 2500 RA FEW011/// BKN033/// 08/07 Q0989

EXPIRED METARs :
  • 281850Z AUTO 24014KT 200V280 6000 -DZ SCT012/// BKN049/// 09/08 Q0989
  • 281820Z AUTO 23016KT 200V260 8000 -RA FEW016/// BKN021/// 09/07 Q0989
  • 281750Z AUTO 23014KT 210V270 9999 FEW021/// SCT027/// BKN045/// 09/06 Q0988
  • 281720Z AUTO 23015KT 210V270 9999 FEW020/// BKN046/// 09/06 Q0988

Expired Forecast.



MET'MAP, your aeronautical weather chart ! - Copyright ORBIFLY December 2007 - Disclaimer

ORBIFLY MET'MAP TEAM :

Programming & Development : Alexandra Zaïnal
Concept & original design : Baudouin d'Aumeries
Assistance for programming : Marc-Olivier Méhu
Technical & hardware support : Manuel Goepfert

Contact : metmap@orbifly.com




SOURCES & CREDITS :

   NOAA